| time (UTC) | temp F | wind direction | speed MPH | gust MPH | rain 1hr in | rain 24hr in | rain mn in | humidity % | barometer mb |
| 20260503220018 | 66 | 290 | 6.0 | 13.0 | 0.00 | 0.00 | 0.00 | 55 | 1013.9 |
| 20260503215518 | 66 | 328 | 3.0 | 13.0 | 0.00 | 0.00 | 0.00 | 57 | 1014.0 |
| 20260503215016 | 66 | 320 | 6.0 | 15.0 | 0.00 | 0.00 | 0.00 | 57 | 1013.9 |
| 20260503214618 | 66 | 289 | 7.0 | 17.0 | 0.00 | 0.00 | 0.00 | 58 | 1014.0 |
| 20260503214021 | 65 | 307 | 8.0 | 17.0 | 0.00 | 0.00 | 0.00 | 57 | 1014.0 |
| 20260503213515 | 66 | 304 | 7.0 | 14.0 | 0.00 | 0.00 | 0.00 | 58 | 1014.0 |
| 20260503213015 | 66 | 298 | 7.0 | 14.0 | 0.00 | 0.00 | 0.00 | 59 | 1014.0 |
| 20260503212515 | 66 | 299 | 6.0 | 13.0 | 0.00 | 0.00 | 0.00 | 59 | 1014.0 |
| 20260503212013 | 66 | 329 | 6.0 | 17.0 | 0.00 | 0.00 | 0.00 | 60 | 1013.8 |
| 20260503211514 | 66 | 338 | 3.0 | 16.0 | 0.00 | 0.00 | 0.00 | 59 | 1013.9 |
| 20260503211013 | 66 | 266 | 6.0 | 16.0 | 0.00 | 0.00 | 0.00 | 58 | 1014.0 |
| 20260503210519 | 66 | 329 | 9.0 | 14.0 | 0.00 | 0.00 | 0.00 | 58 | 1014.0 |
| 20260503210006 | 66 | 321 | 10.0 | 15.0 | 0.00 | 0.00 | 0.00 | 58 | 1013.9 |
| 20260503205506 | 66 | 318 | 8.0 | 15.0 | 0.00 | 0.00 | 0.00 | 57 | 1014.0 |
| 20260503205006 | 66 | 269 | 7.0 | 15.0 | 0.00 | 0.00 | 0.00 | 58 | 1014.1 |
| 20260503204505 | 66 | 283 | 8.0 | 14.0 | 0.00 | 0.00 | 0.00 | 58 | 1014.2 |
| 20260503204005 | 66 | 304 | 7.0 | 15.0 | 0.00 | 0.00 | 0.00 | 60 | 1014.2 |
| 20260503203508 | 66 | 323 | 7.0 | 15.0 | 0.00 | 0.00 | 0.00 | 60 | 1014.3 |
| 20260503203004 | 66 | 305 | 8.0 | 14.0 | 0.00 | 0.00 | 0.00 | 59 | 1014.3 |
| 20260503202505 | 66 | 354 | 6.0 | 16.0 | 0.00 | 0.00 | 0.00 | 60 | 1014.2 |
| 20260503202004 | 65 | 268 | 5.0 | 19.0 | 0.00 | 0.00 | 0.00 | 62 | 1014.2 |
| 20260503201504 | 65 | 314 | 10.0 | 19.0 | 0.00 | 0.00 | 0.00 | 60 | 1014.3 |
| 20260503201007 | 66 | 341 | 9.0 | 17.0 | 0.00 | 0.00 | 0.00 | 60 | 1014.2 |
| 20260503200504 | 65 | 331 | 4.0 | 13.0 | 0.00 | 0.00 | 0.00 | 61 | 1014.3 |
| 20260503200100 | 65 | 292 | 7.0 | 14.0 | 0.00 | 0.00 | 0.00 | 61 | 1014.2 |
| 20260503195555 | 65 | 307 | 6.0 | 17.0 | 0.00 | 0.00 | 0.00 | 61 | 1014.3 |
| 20260503195057 | 65 | 316 | 5.0 | 17.0 | 0.00 | 0.00 | 0.00 | 61 | 1014.3 |
| 20260503194555 | 65 | 312 | 6.0 | 18.0 | 0.00 | 0.00 | 0.00 | 60 | 1014.4 |
| 20260503194055 | 65 | 300 | 7.0 | 16.0 | 0.00 | 0.00 | 0.00 | 59 | 1014.3 |
| 20260503193555 | 65 | 323 | 7.0 | 12.0 | 0.00 | 0.00 | 0.00 | 60 | 1014.4 |
| 20260503193059 | 65 | 325 | 6.0 | 12.0 | 0.00 | 0.00 | 0.00 | 60 | 1014.4 |
| 20260503192553 | 65 | 304 | 6.0 | 12.0 | 0.00 | 0.00 | 0.00 | 61 | 1014.4 |
| 20260503192052 | 65 | 312 | 7.0 | 12.0 | 0.00 | 0.00 | 0.00 | 61 | 1014.4 |
| 20260503191601 | 64 | 320 | 4.0 | 10.0 | 0.00 | 0.00 | 0.00 | 61 | 1014.4 |
| 20260503191050 | 64 | 310 | 5.0 | 10.0 | 0.00 | 0.00 | 0.00 | 60 | 1014.5 |
| 20260503190549 | 63 | 267 | 3.0 | 9.0 | 0.00 | 0.00 | 0.00 | 60 | 1014.4 |
| 20260503190038 | 63 | 300 | 5.0 | 11.0 | 0.00 | 0.00 | 0.00 | 61 | 1014.4 |
| 20260503185535 | 63 | 275 | 3.0 | 11.0 | 0.00 | 0.00 | 0.00 | 62 | 1014.5 |
| 20260503185035 | 62 | 310 | 2.0 | 11.0 | 0.00 | 0.00 | 0.00 | 62 | 1014.5 |
| 20260503184538 | 62 | 304 | 4.0 | 11.0 | 0.00 | 0.00 | 0.00 | 63 | 1014.5 |
| 20260503184032 | 61 | 308 | 4.0 | 10.0 | 0.00 | 0.00 | 0.00 | 63 | 1014.5 |
| 20260503183532 | 61 | 343 | 2.0 | 10.0 | 0.00 | 0.00 | 0.00 | 63 | 1014.6 |
| 20260503183029 | 61 | 289 | 4.0 | 10.0 | 0.00 | 0.00 | 0.00 | 64 | 1014.6 |
| 20260503182527 | 60 | 289 | 2.0 | 9.0 | 0.00 | 0.00 | 0.00 | 64 | 1014.7 |
| 20260503182026 | 60 | 302 | 4.0 | 11.0 | 0.00 | 0.00 | 0.00 | 65 | 1014.7 |
| 20260503181525 | 60 | 358 | 0.0 | 11.0 | 0.00 | 0.00 | 0.00 | 65 | 1014.7 |
| 20260503181026 | 60 | 319 | 0.0 | 10.0 | 0.00 | 0.00 | 0.00 | 66 | 1014.8 |
| 20260503180523 | 60 | 274 | 3.0 | 8.0 | 0.00 | 0.00 | 0.00 | 67 | 1014.7 |
| 20260503180022 | 59 | 310 | 0.0 | 11.0 | 0.00 | 0.00 | 0.00 | 67 | 1014.7 |
| 20260503175514 | 59 | 296 | 5.0 | 11.0 | 0.00 | 0.00 | 0.00 | 68 | 1014.7 |
| 20260503175013 | 59 | 313 | 1.0 | 9.0 | 0.00 | 0.00 | 0.00 | 68 | 1014.7 |
| 20260503174512 | 59 | 319 | 2.0 | 10.0 | 0.00 | 0.00 | 0.00 | 69 | 1014.7 |
| 20260503174012 | 58 | 302 | 5.0 | 10.0 | 0.00 | 0.00 | 0.00 | 70 | 1014.8 |
| 20260503173509 | 58 | 294 | 4.0 | 9.0 | 0.00 | 0.00 | 0.00 | 71 | 1014.8 |
| 20260503173009 | 58 | 318 | 1.0 | 7.0 | 0.00 | 0.00 | 0.00 | 72 | 1014.8 |
| 20260503172508 | 58 | 321 | 1.0 | 13.0 | 0.00 | 0.00 | 0.00 | 73 | 1014.8 |
| 20260503172006 | 58 | 310 | 1.0 | 13.0 | 0.00 | 0.00 | 0.00 | 73 | 1014.7 |
| 20260503171506 | 58 | 314 | 2.0 | 8.0 | 0.00 | 0.00 | 0.00 | 74 | 1014.7 |
| 20260503171004 | 58 | 340 | 1.0 | 7.0 | 0.00 | 0.00 | 0.00 | 74 | 1014.7 |
| 20260503170504 | 58 | 4 | 1.0 | 6.0 | 0.00 | 0.00 | 0.00 | 74 | 1014.6 |
| 20260503150530 | 55 | 7 | 1.0 | 4.0 | 0.00 | 0.00 | 0.00 | 82 | 1013.9 |
| 20260503131052 | 53 | 85 | 0.0 | 1.0 | 0.00 | 0.00 | 0.00 | 82 | 1012.9 |
| 20260503130552 | 53 | 78 | 0.0 | 1.0 | 0.00 | 0.00 | 0.00 | 82 | 1012.8 |
| 20260503120103 | 54 | 25 | 0.0 | 0.0 | 0.00 | 0.00 | 0.00 | 82 | 1012.3 |
| 20260503110546 | 54 | 26 | 0.0 | 0.0 | 0.00 | 0.00 | 0.00 | 82 | 1012.7 |
| 20260503081532 | 55 | 25 | 0.0 | 4.0 | 0.00 | 0.00 | 0.00 | 80 | 1013.1 |
| 20260503081032 | 55 | 29 | 1.0 | 4.0 | 0.00 | 0.00 | 0.00 | 80 | 1013.3 |
| 20260503080535 | 55 | 1 | 0.0 | 3.0 | 0.00 | 0.00 | 0.00 | 80 | 1013.3 |
| 20260503072529 | 55 | 25 | 0.0 | 2.0 | 0.00 | 0.00 | 0.00 | 81 | 1013.2 |
| 20260503072131 | 55 | 25 | 0.0 | 2.0 | 0.00 | 0.00 | 0.00 | 81 | 1013.3 |
| 20260503071528 | 55 | 25 | 0.0 | 2.0 | 0.00 | 0.00 | 0.00 | 81 | 1013.1 |
| 20260503071027 | 55 | 25 | 0.0 | 2.0 | 0.00 | 0.00 | 0.00 | 81 | 1013.1 |
| 20260503070526 | 55 | 25 | 0.0 | 1.0 | 0.00 | 0.00 | 0.00 | 81 | 1013.0 |
| 20260503055023 | 54 | 25 | 0.0 | 7.0 | 0.00 | 0.00 | 0.00 | 82 | 1012.7 |
| 20260503054529 | 54 | 52 | 0.0 | 4.0 | 0.00 | 0.00 | 0.00 | 82 | 1012.7 |
| 20260503054026 | 54 | 52 | 0.0 | 4.0 | 0.00 | 0.00 | 0.00 | 82 | 1012.7 |
| 20260503053523 | 54 | 36 | 0.0 | 2.0 | 0.00 | 0.00 | 0.00 | 82 | 1012.7 |
| 20260503053032 | 54 | 36 | 0.0 | 1.0 | 0.00 | 0.00 | 0.00 | 82 | 1012.7 |
| 20260503052526 | 54 | 36 | 0.0 | 0.0 | 0.00 | 0.00 | 0.00 | 82 | 1012.8 |
| 20260503052022 | 54 | 36 | 0.0 | 2.0 | 0.00 | 0.00 | 0.00 | 82 | 1012.7 |
| 20260503051522 | 53 | 36 | 0.0 | 3.0 | 0.00 | 0.00 | 0.00 | 82 | 1012.6 |
| 20260503051025 | 53 | 36 | 0.0 | 3.0 | 0.00 | 0.00 | 0.00 | 82 | 1012.5 |
| 20260503050522 | 53 | 36 | 0.0 | 0.0 | 0.00 | 0.00 | 0.00 | 82 | 1012.5 |
| 20260503050017 | 53 | 36 | 0.0 | 3.0 | 0.00 | 0.00 | 0.00 | 81 | 1012.4 |
| 20260503045515 | 53 | 36 | 0.0 | 3.0 | 0.00 | 0.00 | 0.00 | 81 | 1012.3 |
| 20260503045015 | 53 | 33 | 0.0 | 1.0 | 0.00 | 0.00 | 0.00 | 81 | 1012.3 |
| 20260503044514 | 54 | 33 | 0.0 | 1.0 | 0.00 | 0.00 | 0.00 | 81 | 1012.2 |
| 20260503044014 | 54 | 33 | 0.0 | 4.0 | 0.00 | 0.00 | 0.00 | 80 | 1012.2 |
| 20260503043514 | 54 | 32 | 0.0 | 4.0 | 0.00 | 0.00 | 0.00 | 80 | 1012.2 |
| 20260503043014 | 54 | 25 | 0.0 | 3.0 | 0.00 | 0.00 | 0.00 | 80 | 1012.2 |
| 20260503042514 | 54 | 85 | 0.0 | 2.0 | 0.00 | 0.00 | 0.00 | 80 | 1012.2 |
| 20260503042014 | 54 | 85 | 0.0 | 2.0 | 0.00 | 0.00 | 0.00 | 79 | 1012.3 |
| 20260503041515 | 54 | 85 | 0.0 | 1.0 | 0.00 | 0.00 | 0.00 | 79 | 1012.3 |
| 20260503041017 | 54 | 85 | 0.0 | 1.0 | 0.00 | 0.00 | 0.00 | 79 | 1012.3 |
| 20260503040513 | 55 | 85 | 0.0 | 1.0 | 0.00 | 0.00 | 0.00 | 79 | 1012.4 |
| 20260503040007 | 55 | 85 | 0.0 | 2.0 | 0.00 | 0.00 | 0.00 | 79 | 1012.3 |
| 20260503035508 | 55 | 85 | 0.0 | 2.0 | 0.00 | 0.00 | 0.00 | 79 | 1012.3 |
| 20260503035007 | 55 | 85 | 0.0 | 2.0 | 0.00 | 0.00 | 0.00 | 79 | 1012.2 |
| 20260503034520 | 55 | 85 | 0.0 | 2.0 | 0.00 | 0.00 | 0.00 | 78 | 1012.1 |
| 20260503034010 | 55 | 85 | 0.0 | 1.0 | 0.00 | 0.00 | 0.00 | 78 | 1012.2 |
| 20260503033506 | 55 | 85 | 0.0 | 2.0 | 0.00 | 0.00 | 0.00 | 78 | 1012.1 |
| 20260503033007 | 56 | 85 | 0.0 | 2.0 | 0.00 | 0.00 | 0.00 | 78 | 1012.1 |
| 20260503032505 | 56 | 360 | 0.0 | 0.0 | 0.00 | 0.00 | 0.00 | 78 | 1012.1 |
| 20260503032005 | 56 | 360 | 0.0 | 0.0 | 0.00 | 0.00 | 0.00 | 78 | 1012.1 |
| 20260503031505 | 56 | 360 | 0.0 | 0.0 | 0.00 | 0.00 | 0.00 | 78 | 1012.2 |
| 20260503031005 | 56 | 360 | 0.0 | 1.0 | 0.00 | 0.00 | 0.00 | 78 | 1012.1 |
| 20260503030505 | 56 | 360 | 0.0 | 1.0 | 0.00 | 0.00 | 0.00 | 78 | 1011.9 |
| 20260503030053 | 56 | 22 | 0.0 | 2.0 | 0.00 | 0.00 | 0.00 | 78 | 1011.8 |
| 20260503025548 | 56 | 22 | 0.0 | 4.0 | 0.00 | 0.00 | 0.00 | 78 | 1011.7 |
| 20260503025048 | 56 | 306 | 0.0 | 4.0 | 0.00 | 0.00 | 0.00 | 77 | 1011.8 |
| 20260503024551 | 57 | 298 | 1.0 | 4.0 | 0.00 | 0.00 | 0.00 | 77 | 1011.7 |
| 20260503024050 | 57 | 327 | 1.0 | 6.0 | 0.00 | 0.00 | 0.00 | 76 | 1011.5 |
| 20260503023546 | 57 | 38 | 3.0 | 6.0 | 0.00 | 0.00 | 0.00 | 76 | 1011.4 |
| 20260503023046 | 57 | 301 | 2.0 | 10.0 | 0.00 | 0.00 | 0.00 | 76 | 1011.4 |
| 20260503022545 | 57 | 319 | 5.0 | 10.0 | 0.00 | 0.00 | 0.00 | 75 | 1011.4 |
| 20260503022044 | 58 | 331 | 4.0 | 9.0 | 0.00 | 0.00 | 0.00 | 74 | 1011.5 |
| 20260503021546 | 58 | 316 | 2.0 | 9.0 | 0.00 | 0.00 | 0.00 | 74 | 1011.5 |
| 20260503021044 | 58 | 301 | 3.0 | 13.0 | 0.00 | 0.00 | 0.00 | 73 | 1011.5 |
| 20260503020544 | 58 | 279 | 5.0 | 13.0 | 0.00 | 0.00 | 0.00 | 73 | 1011.5 |
| 20260503020041 | 58 | 314 | 4.0 | 10.0 | 0.00 | 0.00 | 0.00 | 72 | 1011.5 |
| 20260503015540 | 59 | 286 | 5.0 | 11.0 | 0.00 | 0.00 | 0.00 | 72 | 1011.5 |
| 20260503015037 | 59 | 321 | 4.0 | 10.0 | 0.00 | 0.00 | 0.00 | 72 | 1011.5 |
| 20260503014542 | 59 | 302 | 5.0 | 10.0 | 0.00 | 0.00 | 0.00 | 71 | 1011.6 |
| 20260503014040 | 59 | 303 | 5.0 | 10.0 | 0.00 | 0.00 | 0.00 | 71 | 1011.6 |
| 20260503013537 | 60 | 287 | 4.0 | 10.0 | 0.00 | 0.00 | 0.00 | 71 | 1011.5 |
| 20260503013038 | 60 | 308 | 4.0 | 11.0 | 0.00 | 0.00 | 0.00 | 70 | 1011.5 |
| 20260503012536 | 60 | 299 | 5.0 | 11.0 | 0.00 | 0.00 | 0.00 | 70 | 1011.5 |
| 20260503012038 | 60 | 278 | 3.0 | 11.0 | 0.00 | 0.00 | 0.00 | 70 | 1011.6 |
| 20260503011536 | 61 | 275 | 4.0 | 9.0 | 0.00 | 0.00 | 0.00 | 70 | 1011.6 |
| 20260503011036 | 61 | 303 | 2.0 | 9.0 | 0.00 | 0.00 | 0.00 | 70 | 1011.7 |
| 20260503010537 | 61 | 291 | 2.0 | 10.0 | 0.00 | 0.00 | 0.00 | 69 | 1011.7 |
| 20260503010025 | 61 | 312 | 5.0 | 10.0 | 0.00 | 0.00 | 0.00 | 69 | 1011.7 |
| 20260503005525 | 62 | 318 | 5.0 | 13.0 | 0.00 | 0.00 | 0.00 | 68 | 1011.8 |
| 20260503005024 | 62 | 306 | 4.0 | 13.0 | 0.00 | 0.00 | 0.00 | 68 | 1011.8 |
| 20260503004524 | 62 | 302 | 5.0 | 12.0 | 0.00 | 0.00 | 0.00 | 68 | 1011.9 |
| 20260503004027 | 62 | 324 | 5.0 | 12.0 | 0.00 | 0.00 | 0.00 | 68 | 1011.8 |
| 20260503003523 | 63 | 307 | 2.0 | 10.0 | 0.00 | 0.00 | 0.00 | 68 | 1011.9 |
| 20260503003023 | 63 | 285 | 4.0 | 10.0 | 0.00 | 0.00 | 0.00 | 68 | 1011.8 |
| 20260503002522 | 63 | 290 | 3.0 | 9.0 | 0.00 | 0.00 | 0.00 | 68 | 1011.8 |
| 20260503002022 | 63 | 284 | 3.0 | 10.0 | 0.00 | 0.00 | 0.00 | 68 | 1011.8 |
| 20260503001522 | 63 | 312 | 4.0 | 10.0 | 0.00 | 0.00 | 0.00 | 68 | 1011.7 |
| 20260503001020 | 63 | 314 | 3.0 | 10.0 | 0.00 | 0.00 | 0.00 | 68 | 1011.8 |
| 20260503000520 | 63 | 311 | 2.0 | 12.0 | 0.00 | 0.00 | 0.00 | 68 | 1011.8 |
| 20260503000014 | 64 | 282 | 5.0 | 12.0 | 0.00 | 0.00 | 0.00 | 68 | 1011.8 |
| 20260502235513 | 64 | 281 | 4.0 | 10.0 | 0.00 | 0.00 | 0.00 | 67 | 1011.7 |
| 20260502235014 | 64 | 313 | 4.0 | 10.0 | 0.00 | 0.00 | 0.00 | 67 | 1011.9 |
| 20260502234512 | 64 | 314 | 2.0 | 11.0 | 0.00 | 0.00 | 0.00 | 67 | 1011.9 |
| 20260502234012 | 64 | 318 | 7.0 | 12.0 | 0.00 | 0.00 | 0.00 | 67 | 1011.9 |
| 20260502233512 | 64 | 317 | 4.0 | 11.0 | 0.00 | 0.00 | 0.00 | 67 | 1011.8 |
| 20260502233011 | 65 | 294 | 2.0 | 11.0 | 0.00 | 0.00 | 0.00 | 67 | 1011.9 |
| 20260502232510 | 65 | 313 | 2.0 | 11.0 | 0.00 | 0.00 | 0.00 | 67 | 1012.0 |
| 20260502232014 | 65 | 299 | 6.0 | 14.0 | 0.00 | 0.00 | 0.00 | 66 | 1012.1 |
| 20260502231515 | 65 | 291 | 7.0 | 14.0 | 0.00 | 0.00 | 0.00 | 67 | 1012.2 |
| 20260502231010 | 65 | 306 | 5.0 | 13.0 | 0.00 | 0.00 | 0.00 | 66 | 1012.2 |
| 20260502230508 | 65 | 287 | 5.0 | 11.0 | 0.00 | 0.00 | 0.00 | 67 | 1012.3 |
| 20260502230052 | 65 | 290 | 5.0 | 11.0 | 0.00 | 0.00 | 0.00 | 66 | 1012.4 |
| 20260502225552 | 66 | 296 | 4.0 | 9.0 | 0.00 | 0.00 | 0.00 | 66 | 1012.5 |
| 20260502225052 | 66 | 329 | 1.0 | 11.0 | 0.00 | 0.00 | 0.00 | 67 | 1012.5 |
| 20260502224551 | 66 | 307 | 4.0 | 11.0 | 0.00 | 0.00 | 0.00 | 66 | 1012.5 |
| 20260502224050 | 66 | 332 | 3.0 | 10.0 | 0.00 | 0.00 | 0.00 | 67 | 1012.6 |
| 20260502223550 | 66 | 293 | 5.0 | 10.0 | 0.00 | 0.00 | 0.00 | 67 | 1012.7 |
| 20260502223049 | 65 | 299 | 1.0 | 11.0 | 0.00 | 0.00 | 0.00 | 67 | 1012.7 |
| 20260502222548 | 65 | 335 | 6.0 | 11.0 | 0.00 | 0.00 | 0.00 | 67 | 1012.8 |
| 20260502222051 | 65 | 307 | 2.0 | 11.0 | 0.00 | 0.00 | 0.00 | 68 | 1013.0 |
| 20260502221546 | 65 | 313 | 5.0 | 11.0 | 0.00 | 0.00 | 0.00 | 68 | 1013.0 |
| 20260502221047 | 65 | 277 | 4.0 | 11.0 | 0.00 | 0.00 | 0.00 | 68 | 1013.2 |
| 20260502220544 | 65 | 304 | 1.0 | 13.0 | 0.00 | 0.00 | 0.00 | 68 | 1013.3 |